{"data":{"norad_id":65797,"epoch":"2026-09-20T13:10:39.514080Z","epoch_age_seconds":101939,"freshness":"FRESH","line1":"1 65797U 25218G   26263.54906845  .00017552  00000+0  54445-3 0  9996","line2":"2 65797  97.2861 120.9658 0001820  85.7392 274.4059 15.33461005 54340","mean_motion":15.33461005,"eccentricity":0.000182,"inclination_deg":97.2861,"raan_deg":120.9658,"arg_perigee_deg":85.7392,"mean_anomaly_deg":274.4059,"bstar":0.00054445,"rev_number":5434,"period_min":93.905224541396,"perigee_km":464.25001414773,"apogee_km":466.74109639785,"semimajor_km":6843.6325552728,"source":"CELESTRAK","updated_at":"2026-09-21T09:00:35.714499Z"}}